Wind_Speed
26 25 24 23 24 24 23 21 19 17 17 17 16 15 15 14 13 12 12 13 13 13 13 12 11 10 10 10 10 11 12 13 14 14 14 15 15 15 16 17 17 19 20 21
27 26 25 24 24 24 23 23 21 19 18 17 16 15 15 15 14 13 13 13 13 13 13 13 12 11 11 10 10 10 11 12 12 13 13 14 14 14 15 16 17 18 19 19
25 25 25 25 25 24 23 23 22 20 19 17 17 16 16 16 15 15 14 14 14 14 13 12 12 12 12 11 11 11 11 10 11 11 12 13 13 14 14 15 16 17 18 19
25 26 25 25 25 24 24 23 22 22 20 18 18 17 16 16 16 15 15 14 14 14 13 13 12 12 13 13 12 12 12 12 12 12 12 12 13 13 13 14 15 16 17 18
27 26 26 26 25 24 24 24 23 22 21 19 18 17 17 16 16 15 15 15 15 14 14 14 13 13 13 14 14 13 13 12 12 13 12 12 12 12 13 13 14 15 16 18
28 27 26 26 25 25 25 25 24 22 21 20 20 19 18 17 17 16 15 16 15 15 14 14 14 13 13 13 13 13 13 12 12 12 12 12 12 12 13 13 13 14 16 17
29 28 27 27 24 25 27 26 24 23 22 21 21 20 19 19 18 18 17 16 17 16 16 17 16 15 14 14 14 13 13 13 13 13 13 13 13 13 14 14 14 15 15 16
30 29 29 26 25 26 27 26 25 24 24 23 22 21 20 19 19 19 18 18 17 17 17 17 17 16 15 15 15 15 14 15 15 14 14 15 15 15 15 16 16 16 17 18
32 31 29 27 26 25 25 26 26 25 25 24 23 22 21 20 19 19 19 18 18 18 18 18 17 17 17 16 15 15 16 16 16 16 16 16 16 17 17 17 18 18 19 19
30 30 30 29 28 27 27 27 27 26 25 24 24 23 22 22 21 20 20 19 20 20 19 19 19 18 18 17 17 17 16 16 16 17 17 17 17 18 18 19 19 20 21 22
29 29 30 30 28 27 28 28 27 26 26 25 24 24 23 23 22 21 22 21 21 21 21 20 19 19 19 18 17 17 17 17 17 17 18 18 19 19 19 19 19 20 21 22
29 29 29 29 29 27 27 27 27 26 25 25 24 22 22 22 22 22 22 22 21 21 21 20 19 19 19 18 18 18 17 17 18 18 19 19 20 20 20 20 20 21 22 22
28 29 29 29 28 27 26 27 27 26 25 25 24 22 22 22 22 22 22 21 21 20 20 19 19 19 19 18 18 17 18 18 18 19 20 20 19 20 20 20 21 22 22 23
27 28 28 28 28 27 27 26 26 25 25 24 24 23 22 22 21 21 21 21 21 20 19 19 19 18 18 18 18 18 18 18 19 19 19 19 20 21 21 21 21 22 23 23
26 27 27 27 27 27 26 25 24 24 23 23 23 22 22 21 21 21 20 21 20 20 20 20 19 18 18 18 17 17 18 18 19 19 19 19 19 20 20 21 21 22 24 24
25 25 26 26 26 26 26 25 24 23 22 22 22 22 21 20 20 19 19 19 19 18 18 18 18 17 17 18 18 18 18 18 18 19 19 19 19 20 20 21 22 23 24 25
24 24 25 26 25 25 25 24 23 22 21 21 20 20 20 19 19 18 18 18 18 18 17 17 17 17 17 17 18 18 18 18 18 18 18 18 18 19 21 22 23 23 24 25
25 26 26 25 25 25 23 22 21 21 21 21 20 20 20 19 18 18 18 18 17 17 17 17 16 16 17 17 17 16 16 16 17 17 18 19 20 20 21 22 24 25 27 28
25 26 26 26 25 24 22 20 20 20 19 18 18 18 18 18 18 18 17 17 16 15 16 16 16 15 15 15 16 16 16 17 17 17 18 19 20 21 23 24 26 27 28 29
24 25 24 24 24 23 21 20 19 19 19 19 18 17 17 17 17 16 16 15 16 16 15 14 14 15 15 15 15 16 17 17 18 18 20 21 22 23 25 26 28 29 30 31
22 22 22 23 22 21 19 19 18 17 17 17 16 16 16 16 16 15 16 16 15 15 15 14 14 15 15 16 16 17 18 18 19 20 22 23 24 25 26 27 28 30 31 32
22 22 21 21 20 20 18 18 16 15 14 15 15 14 14 14 14 14 14 14 14 14 14 14 14 15 16 16 17 18 19 20 21 22 23 24 25 26 27 29 30 31 32 33
20 21 21 20 20 18 17 16 15 14 14 13 13 13 13 14 13 13 12 13 13 13 13 13 14 15 16 17 18 19 20 21 22 23 24 25 27 28 29 30 31 32 32 33
19 19 19 19 18 17 15 15 14 13 13 13 12 13 13 12 12 12 12 12 12 13 13 14 15 16 17 18 19 19 20 22 23 24 25 27 27 28 29 30 31 32 32 32
18 18 18 18 16 16 15 14 13 13 13 13 13 12 12 11 11 11 12 12 13 13 14 15 16 17 18 19 19 21 22 23 24 25 26 27 28 28 29 30 30 30 30 30
17 17 16 16 16 15 15 14 14 13 13 13 12 12 12 11 12 13 13 14 14 15 15 16 17 18 19 20 21 22 23 24 25 25 26 27 28 28 29 28 28 28 29 28
16 16 15 15 15 15 14 14 14 14 13 13 13 13 13 13 14 14 15 15 15 16 17 18 19 20 21 22 22 23 23 24 24 25 26 26 27 27 27 28 28 27 27 27
Wind_Direction
210 214 218 219 218 219 220 221 226 232 233 236 238 238 239 241 245 246 247 250 251 256 261 263 266 270 272 270 264 263 262 258 253 252 250 247 247 244 243 244 242 239 239 239
214 214 215 217 218 219 221 223 224 228 233 235 237 236 238 240 244 245 249 252 253 260 263 263 261 264 268 268 266 264 265 261 257 254 251 250 248 247 244 243 243 242 240 239
213 215 217 219 219 221 222 225 225 228 232 234 234 236 239 241 244 246 250 254 256 262 262 262 260 262 265 269 270 268 268 262 256 255 253 253 253 251 248 248 246 243 242 242
214 216 218 221 221 220 222 224 225 229 232 234 235 236 238 239 243 245 249 250 253 259 262 263 264 266 268 266 267 268 269 263 258 258 257 257 254 250 250 250 247 247 246 247
217 220 223 224 221 220 223 225 226 229 231 233 235 236 235 238 243 247 250 252 254 258 261 262 262 265 268 264 264 264 263 263 261 257 256 255 253 251 254 253 252 249 250 250
219 220 224 226 224 223 224 228 228 230 230 231 233 235 236 240 245 249 253 253 255 256 259 259 261 263 265 267 264 261 260 261 262 262 260 259 255 255 255 255 256 257 255 256
220 222 225 225 222 223 225 227 226 229 230 231 232 235 239 243 247 250 253 254 254 254 258 260 261 263 265 267 262 260 259 261 263 265 265 263 261 258 258 258 262 264 263 263
220 223 227 224 223 223 225 227 228 228 229 230 232 236 240 243 246 248 250 252 253 255 258 260 259 260 263 265 262 261 262 262 261 259 261 262 262 263 264 265 267 269 271 271
223 225 226 225 225 223 225 226 226 226 228 229 232 235 240 243 244 246 246 249 252 255 257 256 257 260 261 262 263 262 261 260 259 259 260 262 262 263 264 267 270 272 274 275
224 224 226 227 226 224 225 225 225 226 228 230 233 237 241 242 244 245 245 247 251 254 256 256 256 257 259 259 260 261 262 263 261 262 262 262 263 264 266 268 270 272 275 277
223 224 224 226 225 224 222 222 224 227 228 230 233 237 239 240 243 245 247 250 252 255 256 257 256 258 257 256 258 261 263 264 264 264 263 263 263 264 266 268 269 272 275 277
221 222 221 222 223 222 221 220 222 225 227 230 232 235 238 241 243 245 248 250 253 255 257 255 256 258 256 256 257 259 261 262 263 264 264 264 264 266 268 270 273 275 275 279
221 219 219 221 221 221 220 220 222 222 225 228 233 237 240 241 243 245 247 248 253 256 256 255 255 256 258 255 256 259 260 261 262 264 265 265 266 268 268 271 275 277 277 279
219 218 218 218 220 221 222 223 223 224 226 230 234 238 240 241 242 245 246 248 250 253 254 254 253 254 256 254 255 257 259 260 263 266 268 268 270 271 272 274 277 279 279 282
215 213 214 215 217 219 221 222 222 223 227 230 233 235 236 239 242 244 245 245 246 249 251 250 251 252 253 253 256 258 260 261 264 267 270 272 274 275 275 276 277 279 280 282
209 210 210 211 213 215 216 218 221 224 226 229 231 233 236 238 240 243 245 247 247 248 248 248 250 252 254 255 258 261 262 264 267 269 270 272 275 277 277 277 279 282 285 286
208 208 208 208 210 211 213 216 219 222 224 225 227 231 233 235 239 241 242 244 244 244 244 245 248 251 253 255 259 262 263 266 269 270 272 274 276 278 282 285 287 289 290 291
205 206 205 206 208 207 208 213 217 220 222 223 224 228 231 234 237 240 242 243 242 242 244 247 250 252 256 258 263 266 266 267 270 273 276 279 281 283 286 288 289 290 291 292
203 204 204 203 204 206 207 210 212 213 214 217 221 225 228 232 235 237 238 237 239 241 243 247 252 255 257 260 265 268 270 273 275 279 281 282 284 286 289 291 292 293 294 295
198 201 203 202 202 205 207 208 208 210 215 219 223 225 226 228 231 231 231 233 238 242 247 250 253 256 261 266 270 273 275 278 280 282 284 287 289 291 292 293 294 295 297 298
198 200 201 201 203 205 206 207 208 211 215 216 218 220 223 225 226 228 230 236 241 245 248 252 256 260 264 267 271 275 278 280 283 285 287 289 291 293 295 296 297 299 300 300
197 197 196 197 199 201 204 206 207 207 209 211 214 218 220 221 224 228 233 239 243 246 251 255 260 265 269 272 275 278 280 282 285 287 290 292 294 295 297 299 300 300 301 302
188 190 192 194 196 197 200 202 203 204 205 206 210 213 216 219 224 229 233 237 242 248 254 260 266 270 274 276 279 281 283 286 288 291 293 295 297 298 300 301 301 302 302 303
183 187 188 191 193 193 194 195 198 202 204 207 212 216 219 224 229 233 239 243 249 255 261 266 270 274 277 280 283 285 288 291 293 294 296 298 299 301 302 303 303 304 304 304
178 179 183 187 189 190 191 193 196 200 204 207 212 217 224 229 235 241 246 253 259 266 271 274 276 280 283 286 288 291 293 295 296 298 299 301 302 302 303 304 305 305 306 306
181 184 187 189 190 191 194 198 201 205 209 214 220 227 233 240 246 251 257 263 268 273 277 279 282 285 287 290 292 294 296 298 300 301 302 303 303 304 305 305 305 306 307 307
185 188 191 192 194 198 203 207 210 214 219 225 230 236 243 250 255 260 264 267 271 276 280 283 286 288 289 292 294 295 297 299 301 302 303 304 304 305 305 306 306 307 307 308
Height
5786 5789 5793 5797 5801 5804 5808 5813 5817 5820 5821 5822 5823 5825 5826 5827 5827 5828 5828 5828 5829 5829 5829 5829 5828 5828 5827 5827 5826 5826 5826 5826 5826 5827 5828 5829 5830 5830 5832 5833 5835 5836 5837 5839
5781 5785 5789 5793 5796 5800 5804 5808 5811 5814 5816 5818 5819 5820 5822 5823 5824 5824 5825 5825 5825 5825 5825 5825 5825 5825 5825 5825 5824 5824 5824 5823 5824 5824 5825 5825 5826 5827 5828 5829 5830 5831 5832 5834
5777 5780 5784 5788 5792 5796 5800 5803 5807 5810 5812 5813 5815 5816 5817 5819 5820 5820 5821 5821 5822 5822 5822 5822 5822 5822 5822 5822 5822 5822 5821 5821 5821 5821 5822 5822 5823 5824 5825 5825 5826 5827 5828 5830
5772 5776 5780 5786 5787 5791 5795 5798 5801 5804 5807 5809 5810 5812 5813 5815 5816 5816 5817 5818 5818 5818 5819 5819 5819 5819 5819 5819 5819 5819 5819 5819 5819 5819 5820 5820 5821 5821 5822 5822 5823 5824 5824 5825
5767 5771 5775 5778 5782 5786 5790 5793 5796 5799 5802 5804 5806 5807 5809 5810 5811 5812 5813 5814 5814 5815 5815 5815 5816 5816 5816 5816 5816 5816 5816 5817 5817 5817 5817 5818 5818 5818 5819 5819 5819 5820 5821 5821
5761 5766 5770 5774 5777 5781 5785 5788 5791 5794 5796 5799 5801 5803 5805 5806 5807 5808 5809 5810 5810 5811 5811 5812 5812 5812 5813 5813 5813 5813 5813 5814 5814 5814 5815 5815 5815 5816 5816 5816 5816 5817 5817 5817
5755 5759 5763 5766 5771 5775 5780 5782 5785 5788 5791 5793 5796 5798 5800 5801 5802 5804 5804 5805 5806 5807 5807 5808 5808 5808 5809 5809 5809 5810 5810 5811 5811 5811 5812 5812 5812 5812 5813 5813 5813 5813 5813 5813
5748 5753 5758 5761 5765 5769 5772 5776 5779 5782 5785 5788 5790 5792 5794 5796 5797 5799 5800 5801 5801 5802 5803 5803 5804 5804 5805 5805 5806 5806 5807 5807 5808 5808 5808 5809 5809 5809 5809 5809 5809 5809 5809 5809
5742 5747 5750 5754 5758 5762 5766 5769 5772 5776 5779 5782 5785 5787 5789 5791 5792 5794 5795 5796 5796 5797 5797 5798 5799 5800 5801 5801 5802 5802 5802 5803 5803 5804 5804 5804 5805 5805 5805 5805 5805 5805 5805 5804
5735 5739 5743 5747 5751 5755 5759 5763 5766 5770 5773 5776 5779 5781 5783 5785 5787 5788 5790 5791 5792 5792 5793 5794 5794 5795 5796 5797 5797 5798 5798 5798 5798 5799 5799 5800 5800 5800 5801 5800 5800 5800 5799 5799
5728 5732 5737 5741 5745 5749 5753 5756 5760 5764 5767 5770 5773 5775 5777 5779 5781 5783 5784 5785 5786 5787 5788 5789 5790 5791 5791 5792 5793 5793 5794 5794 5794 5794 5795 5795 5795 5795 5795 5795 5795 5795 5794 5793
5721 5726 5730 5734 5738 5742 5746 5750 5754 5757 5761 5764 5767 5769 5771 5773 5775 5777 5778 5780 5781 5782 5783 5784 5785 5786 5786 5787 5788 5788 5789 5789 5789 5790 5790 5790 5790 5790 5789 5789 5789 5789 5788 5787
5715 5719 5724 5728 5732 5736 5740 5744 5748 5751 5755 5758 5761 5763 5765 5767 5769 5771 5773 5774 5776 5776 5777 5778 5779 5780 5781 5781 5782 5783 5784 5784 5784 5784 5784 5785 5784 5784 5784 5783 5783 5782 5781 5780
5709 5713 5718 5722 5726 5731 5735 5738 5742 5746 5749 5752 5755 5758 5760 5762 5764 5766 5767 5769 5770 5771 5772 5773 5774 5775 5776 5776 5777 5778 5779 5779 5780 5779 5779 5779 5779 5778 5778 5777 5777 5775 5774 5773
5703 5708 5712 5717 5721 5725 5729 5733 5736 5740 5744 5747 5750 5752 5754 5757 5759 5760 5762 5763 5764 5766 5767 5768 5769 5770 5771 5772 5772 5773 5774 5774 5774 5774 5774 5773 5773 5772 5771 5771 5770 5769 5767 5766
5698 5703 5707 5711 5715 5720 5724 5728 5732 5735 5738 5742 5744 5747 5749 5751 5753 5755 5757 5758 5759 5760 5762 5763 5764 5765 5766 5767 5768 5768 5769 5769 5769 5768 5768 5767 5767 5766 5765 5764 5763 5762 5760 5759
5694 5698 5703 5707 5711 5715 5719 5723 5727 5730 5734 5737 5740 5742 5745 5747 5749 5750 5752 5753 5755 5756 5758 5759 5760 5761 5762 5763 5764 5764 5763 5763 5763 5763 5763 5762 5761 5760 5759 5758 5756 5755 5754 5752
5690 5694 5699 5703 5707 5711 5715 5719 5723 5726 5729 5732 5735 5738 5740 5742 5744 5746 5748 5749 5751 5752 5754 5755 5756 5757 5758 5758 5759 5759 5758 5758 5758 5758 5757 5756 5755 5754 5753 5751 5750 5748 5746 5744
5687 5691 5695 5699 5704 5708 5712 5715 5719 5722 5725 5728 5731 5733 5736 5738 5740 5742 5744 5745 5747 5748 5750 5751 5752 5753 5753 5754 5754 5754 5754 5753 5753 5752 5752 5751 5749 5748 5746 5745 5743 5741 5738 5735
5684 5688 5692 5696 5701 5705 5709 5712 5716 5719 5722 5724 5727 5729 5732 5734 5736 5738 5740 5742 5743 5744 5746 5747 5747 5748 5749 5749 5749 5749 5749 5748 5747 5747 5746 5745 5743 5741 5739 5737 5735 5733 5730 5726
5682 5686 5690 5694 5699 5703 5706 5710 5713 5715 5718 5721 5723 5726 5728 5730 5732 5734 5736 5738 5739 5740 5741 5742 5743 5743 5744 5744 5744 5744 5743 5742 5741 5740 5739 5738 5736 5734 5732 5729 5727 5724 5721 5717
5680 5685 5689 5693 5696 5700 5704 5707 5710 5713 5715 5718 5720 5723 5725 5727 5729 5731 5733 5734 5735 5736 5737 5738 5738 5739 5739 5739 5738 5738 5737 5736 5735 5734 5732 5730 5728 5726 5724 5721 5718 5715 5711 5708
5679 5683 5687 5691 5695 5698 5702 5705 5708 5711 5713 5716 5718 5720 5722 5724 5726 5728 5729 5730 5731 5732 5733 5734 5734 5734 5734 5733 5733 5732 5731 5730 5728 5727 5725 5723 5720 5718 5715 5712 5709 5705 5702 5698
5679 5683 5687 5690 5694 5697 5701 5704 5707 5709 5712 5714 5716 5718 5720 5722 5723 5725 5726 5727 5728 5728 5729 5729 5729 5729 5729 5728 5726 5725 5724 5723 5721 5719 5717 5715 5712 5709 5706 5703 5699 5696 5692 5688
5679 5683 5686 5690 5693 5697 5700 5703 5705 5708 5710 5712 5714 5716 5718 5719 5721 5722 5723 5723 5724 5724 5724 5724 5724 5723 5723 5721 5720 5718 5717 5715 5713 5711 5709 5706 5703 5700 5697 5693 5690 5686 5683 5679
5680 5683 5686 5690 5693 5696 5699 5702 5704 5707 5709 5711 5712 5714 5715 5716 5717 5718 5719 5719 5719 5719 5719 5719 5718 5717 5716 5715 5713 5711 5710 5708 5705 5703 5700 5697 5694 5691 5688 5684 5681 5677 5674 5670
5680 5683 5686 5689 5692 5695 5698 5700 5702 5704 5706 5708 5709 5711 5712 5713 5713 5714 5714 5714 5714 5714 5713 5713 5712 5710 5709 5707 5706 5704 5702 5700 5697 5695 5692 5689 5686 5683 5679 5676 5673 5669 5666 5662